This demonstration page uses our WeatherBlox Daily Observations layout. Learn more.

Left ArrowRight Arrow

Hourly Observations for February 15, 2015

Temp ( °F °C ) Dew Point ( °F °C ) Humidity (%) Winds ( mph kmh ) Pressure ( in mb ) Visibility ( mi km ) Precip ( " mm )
12:51 am 00:51 Clear 58 14.4 42 5.6 56 56 E 7 11 29.96 1015 10 16 0.00 0.00
1:51 am 01:51 Clear 55 12.8 42 5.6 62 62 Calm 29.96 1015 10 16 0.00 0.00
2:51 am 02:51 Clear 55 12.8 42 5.6 62 62 NW 5 7 29.95 1014 10 16 0.00 0.00
3:51 am 03:51 Clear 51 10.6 42 5.6 71 71 Calm 29.94 1014 10 16 0.00 0.00
4:51 am 04:51 Clear 50 10 42 5.6 74 74 Calm 29.95 1014 10 16 0.00 0.00
5:51 am 05:51 Clear 52 11.1 42 5.6 69 69 N 3 6 29.96 1015 10 16 0.00 0.00
6:51 am 06:51 Clear 50 10 42 5.6 74 74 N 5 7 29.98 1015 10 16 0.00 0.00
7:51 am 07:51 Sunny 53 11.7 43 6.1 69 69 Calm 29.99 1016 10 16 0.00 0.00
8:51 am 08:51 Sunny 57 13.9 43 6.1 60 60 ESE 3 6 29.99 1016 10 16 0.00 0.00
9:51 am 09:51 Sunny 59 15 41 5 51 51 Calm 30.00 1016 10 16 0.00 0.00
10:51 am 10:51 Sunny 61 16.1 41 5 48 48 SSW 5 7 29.98 1015 10 16 0.00 0.00
11:51 am 11:51 Sunny 66 18.9 42 5.6 42 42 VRB 3 6 29.95 1014 10 16 0.00 0.00
12:51 pm 12:51 Sunny 70 21.1 41 5 35 35 NNW 13 20 29.89 1012 10 16 0.00 0.00
1:51 pm 13:51 Sunny 73 22.8 41 5 32 32 NW 13 20 29.86 1011 10 16 0.00 0.00
2:51 pm 14:51 Mostly Sunny 72 22.2 41 5 33 33 NW 15 24 29.83 1010 10 16 0.00 0.00
3:51 pm 15:51 Sunny 71 21.7 42 5.6 35 35 WNW 18 30 29.83 1010 10 16 0.00 0.00
4:51 pm 16:51 Sunny 71 21.7 43 6.1 36 36 WNW 13 20 29.82 1010 10 16 0.00 0.00
5:51 pm 17:51 Sunny 68 20 43 6.1 40 40 NW 10 17 29.84 1010 10 16 0.00 0.00
6:51 pm 18:51 Clear 66 18.9 45 7.2 47 47 WNW 10 17 29.85 1011 10 16 0.00 0.00
7:51 pm 19:51 Clear 64 17.8 45 7.2 50 50 NW 12 19 29.86 1011 10 16 0.00 0.00
8:51 pm 20:51 Clear 61 16.1 44 6.7 54 54 NW 7 11 29.87 1011 10 16 0.00 0.00
9:51 pm 21:51 Clear 58 14.4 43 6.1 58 58 NW 10 17 29.88 1012 10 16 0.00 0.00
10:51 pm 22:51 Clear 56 13.3 42 5.6 60 60 NW 12 19 29.89 1012 10 16 0.00 0.00
11:51 pm 23:51 Clear 57 13.9 41 5 55 55 NW 8 13 29.88 1012 10 16 0.00 0.00

Powered by AerisWeather